This is the latest recevied weather packets stored in our database for station/object N5VIS. If no packets are shown the sender has not sent any weather packets the latest 10 day(s).
| Time | Temp. | Humidity | Pressure | Rain* | Wind** | Luminosity | Snow |
|---|---|---|---|---|---|---|---|
| 1777887325 | 12.78° C | 95% | 1018.3 hPa | 0 mm | - | - | - |
| 1777887021 | 12.78° C | 94% | 1018.3 hPa | 0 mm | - | - | - |
| 1777886717 | 12.78° C | 93% | 1018.3 hPa | 0 mm | - | - | - |
| 1777886414 | 12.78° C | 93% | 1018.3 hPa | 0 mm | - | - | - |
| 1777886112 | 13.33° C | 93% | 1018.5 hPa | 0 mm | - | - | - |
| 1777885810 | 13.33° C | 92% | 1018.4 hPa | 0 mm | - | - | - |
| 1777885508 | 13.33° C | 92% | 1018.6 hPa | 0 mm | - | - | - |
| 1777885206 | 13.89° C | 91% | 1018.4 hPa | 0 mm | - | - | - |
| 1777884903 | 13.89° C | 91% | 1018.5 hPa | 0 mm | - | - | - |
| 1777884599 | 13.89° C | 90% | 1018.2 hPa | 0 mm | - | - | - |
| 1777884296 | 14.44° C | 89% | 1018.5 hPa | 0 mm | - | - | - |
| 1777883992 | 14.44° C | 88% | 1018.7 hPa | 0 mm | - | - | - |
| 1777883689 | 15° C | 86% | 1018.4 hPa | 0 mm | - | - | - |
| 1777883385 | 15.56° C | 84% | 1018.6 hPa | 0 mm | - | - | - |
| 1777883083 | 16.11° C | 82% | 1018.5 hPa | 0 mm | - | - | - |
| 1777882779 | 16.11° C | 80% | 1018.6 hPa | 0 mm | - | - | - |
| 1777882476 | 16.67° C | 82% | 1018.4 hPa | 0 mm | - | - | - |
| 1777882172 | 17.22° C | 79% | 1018.7 hPa | 0 mm | - | - | - |
| 1777881869 | 17.22° C | 77% | 1018.6 hPa | 0 mm | - | - | - |
| 1777881565 | 17.78° C | 75% | 1018.5 hPa | 0 mm | - | - | - |
| 1777881262 | 17.78° C | 74% | 1018.5 hPa | 0 mm | - | - | - |
| 1777880960 | 18.33° C | 74% | 1018.7 hPa | 0 mm | - | - | - |
| 1777880658 | 18.33° C | 73% | 1018.7 hPa | 0 mm | - | - | - |
| 1777880355 | 18.33° C | 72% | 1018.7 hPa | 0 mm | - | - | - |
| 1777880053 | 18.33° C | 74% | 1018.8 hPa | 0 mm | - | - | - |
* Rain latest hour (hover to see other rain measurements)
** Current wind speed in m/s (hover to see current wind gust speed)